[[{"header":{"parameterUnit":"m.s-1","parameterCategory":1,"la1":30.2991,"la2":30.254,"lo1":-89.0895,"lo2":-89.0444,"dy":0.0017,"dx":0.0017,"nx":28,"ny":28,"refTime":"2024-08-17T09:00:00:Z","depth":0,"parameterNumber":2,"parameterNumberName":"U-component_of_WINDS"},"data":[0,0,0,0,0,0,0,0,0,0,0,0,0,0,0,0,0,0,0,0,0,0,0,0,0,0,0,0,0,0,0,0,0,0,0,0,0,0,0,0,0,0,0,0,0,0,0,0,0,0,0,0,0,0,0,0,0,0,4.0816,4.0817,0,4.0897,4.0898,4.0899,4.0785,4.0781,4.0777,4.0773,4.0861,4.0867,4.0873,0,0,0,0,0,0,0,0,0,0,0,0,0,4.0567,4.0572,4.0816,4.0817,4.0818,4.0897,4.0898,4.0899,4.0786,4.0781,4.0776,4.0771,4.0859,4.0867,4.0874,0,0,0,0,0,0,0,0,0,0,0,0,0,4.0664,4.0573,4.0816,4.0771,4.0767,4.0896,4.0898,4.0899,4.0787,4.0781,4.0775,4.0769,4.0857,4.0866,4.0875,4.1053,0,0,4.0903,4.0907,0,0,0,0,0,0,0,0,4.0659,4.0673,4.0776,4.0774,4.0771,4.0824,4.0842,4.0951,4.0788,4.078,4.0773,4.0766,4.0854,4.0863,4.0892,4.1057,4.1061,4.0904,4.0909,4.0913,4.0916,0,0,0,0,0,0,0,4.0652,4.0669,4.0848,4.0778,4.0775,4.0748,4.0755,4.0862,4.085,4.078,4.0772,4.0783,4.0852,4.0883,4.0893,4.1062,4.0903,4.0912,4.0917,4.0921,4.1377,4.1383,0,0,0,0,0,0,4.065,4.0664,4.0845,4.085,4.0698,4.0757,4.0765,4.0813,4.0849,4.0848,4.0788,4.0777,4.0871,4.0883,4.0896,4.1106,4.0913,4.0922,4.0927,4.137,4.1378,4.1385,0,0,0,0,0,0,4.0645,4.0667,4.0842,4.0755,4.0775,4.0768,4.0823,4.0818,4.085,4.0855,4.0852,4.0822,4.0866,4.0883,4.1014,4.1107,4.0926,4.0934,4.1362,4.1373,4.1382,4.1528,0,0,0,0,0,0,4.0639,4.0666,4.0733,4.0757,4.078,4.0958,4.0829,4.0824,4.0865,4.0852,4.0886,4.0886,4.0863,4.1001,4.1023,4.1117,4.0941,4.1354,4.1367,4.1379,4.1515,4.1542,4.1565,0,0,0,0,0,4.063,4.0773,4.0737,4.076,4.0864,4.0964,4.0977,4.0946,4.0873,4.0941,4.0944,4.0885,4.1094,4.1016,4.104,4.1137,4.1348,4.1363,4.1378,4.1504,4.1537,4.1564,0,0,0,0,0,0,4.0761,4.0775,4.0736,4.089,4.0927,4.0944,4.1029,4.0982,4.1041,4.1026,4.0986,4.0995,4.1135,4.1149,4.1062,4.1311,4.1209,4.1229,4.1297,4.1328,4.1352,4.1346,4.0949,0,0,0,0,0,4.0808,4.0887,4.0895,4.1031,4.1051,4.1037,4.108,4.1052,4.1089,4.1104,4.1116,4.1156,4.123,4.128,4.1348,4.1516,4.1522,4.1595,4.162,4.1641,4.1659,4.1748,4.1781,4.1434,4.1434,4.1434,0,0,4.0906,4.0923,4.0976,4.1057,4.1082,4.1166,4.1051,4.1144,4.1206,4.1119,4.1242,4.1254,4.1295,4.1445,4.1512,4.1461,4.1756,4.166,4.1676,4.1683,4.1767,4.18,4.1829,4.1444,4.1442,4.1441,0,0,4.1126,4.1147,4.1262,4.1288,4.1327,4.1317,4.1344,4.1369,4.1372,4.1496,4.1431,4.1505,4.1634,4.1665,4.1698,4.193,4.1878,4.1953,4.2084,4.2171,4.2198,4.2222,4.2304,4.2334,4.1971,4.1972,4.1972,0,4.1243,4.1365,4.1327,4.1424,4.1462,4.1385,4.1501,4.1529,4.159,4.1618,4.156,4.1718,4.1741,4.1897,4.1953,4.1983,4.2013,4.1949,4.2197,4.2221,4.2243,4.232,4.2351,4.1981,4.198,4.1979,4.1978,0,4.1507,4.1592,4.168,4.1738,4.1785,4.1892,4.1871,4.1924,4.1893,4.1889,4.2015,4.2039,4.2111,4.2146,4.2117,4.2298,4.2265,4.2203,4.21,4.2285,4.2358,4.2387,4.1993,4.199,4.1988,4.1985,0,0,4.1813,4.1846,4.1879,4.1904,4.194,4.2006,4.2109,4.2177,4.2223,4.2267,4.2353,4.2463,4.2405,4.2443,4.2416,4.2493,4.2674,4.2421,4.2422,4.2467,4.2874,4.292,4.2956,4.264,4.2645,4.265,4.2871,0,4.2032,4.2208,4.2176,4.2348,4.2426,4.2354,4.2444,4.2476,4.2476,4.2543,4.2542,4.2621,4.2539,4.2561,4.2634,4.2637,4.2755,4.262,4.272,4.2724,4.2711,4.2993,4.3043,4.325,4.2899,4.2904,4.2907,0,4.2311,4.2363,4.2542,4.2565,4.2596,4.2678,4.2737,4.2802,4.2837,4.2831,4.2873,4.2832,4.2936,4.2831,4.2973,4.2882,4.2921,4.2928,4.2936,4.2944,4.2826,4.3008,4.3315,4.3346,4.2951,4.2948,4.2945,0,4.2515,4.263,4.2752,4.2775,4.2805,4.2863,4.2879,4.2908,4.2951,4.3003,4.303,4.3095,4.3131,4.3182,4.316,4.3086,4.3307,4.32,4.3305,4.3306,4.3355,4.3352,4.3672,4.3381,4.3381,4.338,4.3379,0,4.2763,4.2875,4.2843,4.2918,4.3042,4.3005,4.3129,4.3136,4.3163,4.3238,4.318,4.3253,4.322,4.329,4.3274,4.3394,4.3411,4.3409,4.3404,4.3414,4.3414,4.3439,4.3424,4.3388,4.3386,4.3385,4.3383,0,4.3012,4.2995,4.3122,4.3139,4.3146,4.3237,4.3252,4.3322,4.3316,4.3413,4.3434,4.3425,4.3505,4.3488,4.3577,4.3566,4.3716,4.3693,4.3704,4.3698,4.3803,4.3794,4.415,4.4195,4.3876,4.3879,4.3881,0,4.317,4.3255,4.328,4.3326,4.3345,4.342,4.3462,4.3429,4.3476,4.3522,4.3587,4.3662,4.3719,4.385,4.3853,4.392,4.3898,4.4018,4.3908,4.3915,4.3899,4.3894,4.3902,4.404,4.4044,4.4047,4.4049,0,4.3454,4.3441,4.3503,4.3564,4.3615,4.3662,4.3702,4.3743,4.3714,4.377,4.3849,4.3894,4.3983,4.4057,4.4119,4.4136,4.4089,4.4084,4.4111,4.4123,4.4125,4.4125,4.3763,4.4076,4.4073,4.4071,4.407,4.4069,4.3662,4.3733,4.3762,4.3833,4.386,4.3899,4.3966,4.3967,4.4033,4.4101,4.4078,4.417,4.4203,4.428,4.4305,4.4376,4.4331,4.4372,4.4382,4.4392,4.4405,4.4114,4.4388,4.4387,4.4386,4.4386,4.4385,0,4.3942,4.3956,4.4022,4.408,4.4136,4.4084,4.4127,4.4178,4.4258,4.4292,4.4349,4.4441,4.4513,4.4521,4.4588,4.4644,4.4624,4.4663,4.4659,4.4663,4.4441,4.441,4.4678,4.4678,4.4678,4.4678,4.4678,4.4678,4.4094,4.4211,4.4202,4.4332,4.4345,4.4433,4.4461,4.4497,4.4524,4.4628,4.4687,4.4691,4.4714,4.4783,4.4847,4.4848,4.4875,4.4923,4.4915,4.4708,4.4679,4.4651,4.4621,4.4929,4.493,4.5131,4.5133,4.5134]},{"header":{"parameterUnit":"m.s-1","parameterCategory":1,"la1":30.2991,"la2":30.254,"lo1":-89.0895,"lo2":-89.0444,"dy":0.0017,"dx":0.0017,"nx":28,"ny":28,"refTime":"2024-08-17T09:00:00:Z","depth":0,"parameterNumber":3,"parameterNumberName":"V-component_of_WINDS"},"data":[0,0,0,0,0,0,0,0,0,0,0,0,0,0,0,0,0,0,0,0,0,0,0,0,0,0,0,0,0,0,0,0,0,0,0,0,0,0,0,0,0,0,0,0,0,0,0,0,0,0,0,0,0,0,0,0,0,0,4.8789,4.879,0,4.8878,4.8879,4.888,4.8834,4.8831,4.8829,4.8827,4.8918,4.8923,4.8928,0,0,0,0,0,0,0,0,0,0,0,0,0,4.8577,4.8581,4.8789,4.879,4.8791,4.8878,4.8879,4.8881,4.8834,4.8831,4.8828,4.8826,4.8917,4.8922,4.8928,0,0,0,0,0,0,0,0,0,0,0,0,0,4.8668,4.8583,4.8789,4.8778,4.8778,4.8878,4.888,4.8881,4.8835,4.8831,4.8828,4.8824,4.8915,4.8922,4.8929,4.9044,0,0,4.895,4.8953,0,0,0,0,0,0,0,0,4.8663,4.8676,4.8779,4.8779,4.8779,4.8841,4.8838,4.8936,4.8836,4.8813,4.8827,4.8823,4.8896,4.8904,4.8929,4.9048,4.9052,4.8951,4.8955,4.8958,4.896,0,0,0,0,0,0,0,4.8657,4.8672,4.8824,4.878,4.8781,4.8769,4.8778,4.8857,4.8874,4.8815,4.8812,4.8823,4.8895,4.8922,4.893,4.9053,4.8951,4.8957,4.8961,4.8964,4.927,4.9273,0,0,0,0,0,0,4.8651,4.8667,4.8821,4.8827,4.8711,4.8776,4.8786,4.8825,4.8873,4.8876,4.8826,4.8821,4.8912,4.8922,4.8934,4.907,4.8958,4.8965,4.8969,4.9266,4.927,4.9275,0,0,0,0,0,0,4.8647,4.8665,4.8818,4.8746,4.8765,4.8783,4.8828,4.8829,4.8856,4.8881,4.8884,4.8851,4.8909,4.8924,4.9016,4.9073,4.8968,4.8974,4.9261,4.9267,4.9273,4.9345,0,0,0,0,0,0,4.8641,4.8664,4.8708,4.8748,4.8769,4.89,4.8831,4.8833,4.8868,4.8861,4.8904,4.8908,4.8908,4.9006,4.9023,4.908,4.898,4.9256,4.9264,4.9271,4.9337,4.9352,4.9365,0,0,0,0,0,4.8633,4.8725,4.8711,4.873,4.8824,4.8903,4.8915,4.8913,4.8873,4.8917,4.8933,4.8907,4.9064,4.9016,4.9035,4.9095,4.9252,4.9262,4.927,4.9331,4.9349,4.9365,0,0,0,0,0,0,4.8693,4.873,4.8715,4.8822,4.886,4.8895,4.8951,4.8932,4.8982,4.8974,4.8969,4.8979,4.9075,4.9094,4.904,4.9208,4.9152,4.9165,4.9192,4.9209,4.9223,4.9216,4.8985,0,0,0,0,0,4.8718,4.8779,4.8809,4.89,4.892,4.8932,4.8967,4.8961,4.9,4.9016,4.9039,4.9077,4.9135,4.9173,4.9228,4.934,4.9348,4.939,4.9404,4.9416,4.9427,4.9486,4.9505,4.9304,4.9304,4.9303,0,0,4.8772,4.88,4.8838,4.8913,4.8942,4.9004,4.8946,4.9015,4.9062,4.9026,4.9115,4.9133,4.9176,4.9278,4.9324,4.9297,4.9484,4.9427,4.9436,4.9441,4.9497,4.9516,4.9533,4.931,4.9309,4.9308,0,0,4.8901,4.8929,4.9007,4.9037,4.9081,4.9088,4.9107,4.9145,4.9156,4.9244,4.9219,4.9274,4.9374,4.9405,4.9434,4.9573,4.9551,4.9591,4.9664,4.9721,4.9737,4.9751,4.98,4.9818,4.9602,4.9603,4.9603,0,4.8961,4.9055,4.905,4.9121,4.9154,4.9125,4.9204,4.9233,4.9293,4.9316,4.9285,4.9409,4.9435,4.9544,4.9578,4.9603,4.9623,4.9586,4.9735,4.9749,4.9762,4.9809,4.9827,4.9607,4.9607,4.9606,4.9606,0,4.9127,4.9192,4.9251,4.9308,4.9348,4.9423,4.9429,4.947,4.9461,4.9471,4.9561,4.9592,4.9652,4.9678,4.967,4.9785,4.9766,4.9736,4.9679,4.9786,4.983,4.9847,4.9614,4.9612,4.9611,4.9609,0,0,4.9296,4.9349,4.9371,4.9396,4.9442,4.9492,4.9565,4.9623,4.9658,4.97,4.976,4.9845,4.9816,4.9849,4.9844,4.9895,5.0002,4.9858,4.9859,4.9883,5.013,5.0152,5.0173,4.9988,4.9991,4.9994,5.0126,0,4.9428,4.9555,4.9553,4.9671,4.9731,4.9703,4.9766,4.9801,4.9813,4.9865,4.9877,4.9937,4.9895,4.9914,4.9964,4.9979,5.0052,4.997,5.0044,5.0046,5.0033,5.0196,5.022,5.0343,5.0143,5.0146,5.0148,0,4.9598,4.9645,4.9769,4.9805,4.9829,4.9887,4.9939,4.9989,5.0028,5.0032,5.0069,5.0056,5.0129,5.0071,5.0171,5.0116,5.0146,5.0158,5.0162,5.0169,5.0103,5.0206,5.0382,5.04,5.0175,5.0173,5.0171,0,4.9707,4.9802,4.9888,4.991,4.9954,4.9995,5.0015,5.005,5.0085,5.0131,5.0153,5.0207,5.0236,5.0278,5.028,5.0237,5.0381,5.0323,5.0386,5.0387,5.0418,5.0416,5.0601,5.0439,5.0438,5.0438,5.0437,0,4.9854,4.9931,4.9937,4.999,5.0075,5.0071,5.0155,5.0172,5.0203,5.0258,5.0238,5.029,5.0289,5.0342,5.0344,5.0426,5.044,5.0446,5.0445,5.0447,5.0446,5.0466,5.0457,5.0443,5.0442,5.0441,5.044,0,4.9991,4.9998,5.009,5.0124,5.0134,5.0195,5.0224,5.0274,5.0283,5.0353,5.037,5.0384,5.0446,5.0451,5.0523,5.0524,5.0623,5.0614,5.061,5.0608,5.0671,5.0665,5.0875,5.0902,5.0723,5.0724,5.0726,0,5.0083,5.0141,5.0181,5.0217,5.0239,5.0297,5.0331,5.033,5.0367,5.0414,5.0459,5.0518,5.0565,5.0664,5.0681,5.0735,5.0726,5.0796,5.0734,5.0734,5.0726,5.0722,5.0727,5.0808,5.081,5.0811,5.0813,0,5.0246,5.0247,5.0298,5.0351,5.0393,5.0435,5.0473,5.0503,5.0506,5.0549,5.0611,5.0648,5.072,5.0779,5.0832,5.0852,5.0833,5.0832,5.0849,5.0852,5.0847,5.0849,5.0642,5.0827,5.0826,5.0825,5.0824,5.0823,5.0363,5.0413,5.0449,5.0506,5.0535,5.0571,5.062,5.0635,5.0686,5.0745,5.0741,5.0809,5.0845,5.0914,5.0938,5.0991,5.0968,5.0993,5.0999,5.1006,5.1011,5.0839,5.1001,5.1001,5.1,5.1,5.1,0,5.0524,5.0545,5.0598,5.0653,5.0698,5.0676,5.0717,5.0756,5.0817,5.0852,5.0898,5.0969,5.1026,5.1047,5.1102,5.114,5.1133,5.1155,5.1151,5.1156,5.103,5.1009,5.116,5.116,5.116,5.116,5.116,5.116,5.0613,5.0696,5.0701,5.0798,5.0818,5.0885,5.091,5.0944,5.0971,5.1051,5.1098,5.1111,5.1141,5.1197,5.1248,5.1253,5.1273,5.1299,5.13,5.1181,5.1165,5.115,5.113,5.1304,5.1304,5.1422,5.1423,5.1423]}]]